Terug naar catalogus

CZ-4C DEB

ActiefSSO
NORAD 43411·DEBRIS·🇨🇳 China

Gelanceerd Sep 23, 2013 vanaf Taiyuan Satellite Launch Center

Loading…

Volgende Passages (komende 24 uur)

TLE

VersSource: Space-Track

Epoch: Sep 14, 2026, 22:27 UTC

1 43411U 13052F   26257.93559823  .00000044  00000-0  35519-4 0  9995
2 43411  98.5308 338.0855 0005887 126.2830 233.8895 14.27193994667196

Volg CZ-4C DEB in realtime met AllMySat

Download on the App Store